User: anonymous   Login
Location: Eindhoven
(51.4416°N, 5.4697°E)
Time: 18:04:56
(UTC+01:00)
Language:

Courier 1B - Orbit

View from above orbital plane
View from above orbital plane
View from above satellite
View from above satellite

Ground track
Ground track

The orbit data is extracted from the following two-line orbital elements,

1    58U 60013A   19324.50753655  .00000069  00000-0 -25166-4 0  9998
2    58  28.3276  79.7330 0164839 131.0925 230.3982 13.46319328910832
Epoch (UTC): 20 November 2019 12:10:51
Eccentricity: 0.0164839
inclination: 28.3276°
perigee height: 963 km
apogee height: 1209 km
right ascension of ascending node: 79.7330°
argument of perigee: 131.0925°
revolutions per day: 13.46319328
mean anomaly at epoch: 230.3982°
orbit number at epoch: 91083

The dashed part of the orbit path shows where the satellite is in the earth's shadow,  

DLR